GW3653 Weather Reports


Display with metric or nautical units.
time (UTC)temp
F
wind
direction
speed
MPH
gust
MPH
rain 1hr
in
rain 24hr
in
rain mn
in
humidity
%
barometer
mb
20260502170517 55 0.0 0.0 0.01 0.29 0.01 96 1024.8
20260502163558 55 0.0 1.0 0.01 0.29 0.01 96 1024.7
20260502162517 55 0.0 2.0 0.01 0.29 0.01 96 1024.6
20260502161517 55 113 1.0 4.0 0.02 0.29 0.01 96 1024.6
20260502160517 55 0.0 1.0 0.02 0.28 0.00 96 1024.6
20260502152018 55 0.0 2.0 0.02 0.28 0.28 96 1024.6
20260502151018 55 0.0 0.0 0.01 0.27 0.27 96 1024.6
20260502123017 56 0.0 5.0 0.03 0.25 0.25 95 1024.4
20260502122017 56 0.0 2.0 0.04 0.25 0.25 95 1024.4
20260502121037 56 113 1.0 4.0 0.05 0.25 0.25 95 1024.3
20260502115017 56 225 1.0 4.0 0.06 0.24 0.24 94 1024.3
20260502114017 56 0.0 2.0 0.04 0.22 0.22 94 1024.2
20260502113017 56 135 2.0 5.0 0.05 0.24 0.22 94 1024.2
20260502112017 56 0.0 2.0 0.05 0.24 0.21 94 1024.3
20260502111017 56 0.0 2.0 0.05 0.23 0.20 93 1024.2
20260502110037 57 225 1.0 5.0 0.05 0.23 0.20 92 1024.1
20260502105018 57 203 1.0 4.0 0.02 0.20 0.18 90 1024.0
20260502104019 57 225 2.0 6.0 0.02 0.21 0.18 90 1024.0
20260502103019 57 225 2.0 5.0 0.02 0.20 0.17 88 1023.9
20260502102017 58 225 2.0 7.0 0.01 0.20 0.17 84 1024.0
20260502101019 58 248 2.0 8.0 0.00 0.19 0.16 84 1023.6
20260502091019 58 225 2.0 6.0 0.00 0.19 0.16 82 1023.3
20260502071019 59 225 6.0 14.0 0.00 0.17 0.14 82 1023.7
20260502070018 58 203 2.0 6.0 0.00 0.17 0.14 82 1023.4
20260502065018 60 225 5.0 16.0 0.00 0.17 0.14 79 1023.5
20260502064019 62 248 3.0 9.0 0.00 0.17 0.14 74 1023.2
20260502063038 61 225 5.0 11.0 0.00 0.17 0.14 73 1023.3
20260502062019 61 225 4.0 13.0 0.00 0.17 0.14 73 1023.3
20260502061019 62 248 5.0 17.0 0.00 0.19 0.14 72 1023.2
20260502060018 61 203 5.0 11.0 0.00 0.19 0.14 76 1023.2
20260502055019 61 225 4.0 11.0 0.00 0.19 0.14 75 1023.3
20260502054019 60 225 4.0 14.0 0.00 0.19 0.14 78 1023.3
20260502053018 60 248 2.0 8.0 0.00 0.19 0.14 81 1023.3
20260502052018 59 225 5.0 15.0 0.00 0.19 0.14 82 1023.5
20260502051019 59 225 2.0 7.0 0.00 0.19 0.14 88 1023.4
20260502050018 58 225 4.0 11.0 0.00 0.20 0.14 91 1023.6
20260502045018 57 225 4.0 8.0 0.00 0.20 0.14 94 1023.6
20260502044019 56 225 4.0 11.0 0.02 0.20 0.14 93 1023.8
20260502043038 55 225 6.0 12.0 0.03 0.20 0.14 93 1023.9
20260502042018 56 225 6.0 14.0 0.03 0.20 0.14 93 1024.0
20260502041019 56 225 3.0 9.0 0.03 0.20 0.14 94 1024.0
20260502040018 55 225 3.0 11.0 0.05 0.20 0.14 94 1024.3
20260502035018 55 248 4.0 9.0 0.05 0.20 0.14 92 1024.3
20260502034038 57 225 4.0 13.0 0.02 0.18 0.12 91 1024.6
20260502033018 57 225 2.0 11.0 0.02 0.17 0.11 94 1024.5
20260502032018 56 225 1.0 9.0 0.02 0.17 0.11 94 1024.6
20260502031018 55 225 1.0 5.0 0.02 0.17 0.11 94 1024.8
20260502030018 54 225 2.0 6.0 0.01 0.16 0.09 92 1024.7
20260502025018 55 225 4.0 10.0 0.01 0.16 0.09 93 1024.6
20260502024018 55 248 4.0 13.0 0.01 0.16 0.09 94 1024.6
20260502023018 54 225 4.0 10.0 0.01 0.16 0.09 94 1024.7
20260502022038 54 225 3.0 9.0 0.01 0.16 0.09 94 1024.8
20260502021018 54 225 2.0 11.0 0.02 0.17 0.09 94 1025.0
20260502020058 53 203 1.0 4.0 0.02 0.17 0.09 94 1024.9
20260502015038 53 225 3.0 12.0 0.02 0.17 0.09 93 1024.9
20260502014018 53 225 1.0 5.0 0.02 0.17 0.09 94 1025.0
20260502013018 53 225 2.0 7.0 0.03 0.17 0.09 93 1025.1
20260502012018 53 135 3.0 12.0 0.06 0.17 0.09 93 1025.3
20260502011038 53 0.0 1.0 0.05 0.16 0.07 93 1025.2
20260502010018 53 0.0 2.0 0.05 0.16 0.07 93 1025.1
20260502005018 53 158 1.0 5.0 0.04 0.16 0.06 92 1025.1
20260502004018 53 180 1.0 4.0 0.04 0.16 0.06 90 1025.3
20260502003058 56 225 4.0 14.0 0.03 0.15 0.06 80 1025.3
20260502002018 56 225 2.0 11.0 0.00 0.12 0.02 78 1024.8
20260502001018 55 0.0 2.0 0.00 0.12 0.02 81 1024.6
20260502000018 55 0.0 6.0 0.00 0.13 0.02 80 1024.4
20260501235019 55 225 1.0 3.0 0.00 0.13 0.02 79 1024.4
20260501234018 55 180 2.0 7.0 0.00 0.14 0.02 79 1024.2
20260501233018 55 248 5.0 11.0 0.00 0.15 0.02 79 1024.1
20260501232038 55 225 2.0 6.0 0.00 0.15 0.02 78 1023.9
20260501231118 55 225 5.0 12.0 0.00 0.15 0.02 78 1024.0
20260501230517 55 203 2.0 12.0 0.00 0.15 0.02 78 1023.9
20260501225518 55 225 3.0 10.0 0.00 0.15 0.02 79 1023.8
20260501224517 55 225 5.0 12.0 0.00 0.15 0.02 79 1023.8
20260501223517 54 0.0 3.0 0.00 0.15 0.02 79 1023.6
20260501222518 54 225 1.0 5.0 0.00 0.15 0.02 78 1023.7
20260501221518 54 225 2.0 6.0 0.00 0.15 0.02 78 1023.8
20260501220518 54 248 3.0 11.0 0.00 0.15 0.02 77 1023.8
20260501215537 54 225 2.0 10.0 0.02 0.15 0.02 77 1023.9
20260501214518 55 225 5.0 17.0 0.02 0.15 0.02 77 1024.1
20260501213517 55 225 4.0 14.0 0.02 0.15 0.02 74 1023.8
20260501212517 54 248 2.0 9.0 0.02 0.15 0.02 76 1023.7
20260501211517 53 113 2.0 6.0 0.02 0.15 0.02 80 1023.8
20260501210517 54 225 2.0 9.0 0.02 0.15 0.02 79 1024.1
20260501205517 55 225 2.0 7.0 0.00 0.13 0.01 75 1024.0
20260501204517 55 225 2.0 6.0 0.00 0.13 0.01 72 1023.9
20260501203517 56 225 5.0 13.0 0.00 0.14 0.01 72 1023.9
20260501202518 56 225 2.0 9.0 0.00 0.15 0.01 72 1023.6
20260501201517 56 225 3.0 11.0 0.00 0.15 0.01 71 1023.7
20260501200537 55 203 2.0 7.0 0.00 0.15 0.01 72 1023.6
20260501195517 55 225 2.0 6.0 0.00 0.16 0.01 71 1023.5
20260501194557 55 225 3.0 9.0 0.00 0.16 0.01 70 1023.3
20260501193517 55 135 1.0 5.0 0.00 0.16 0.01 71 1023.5
20260501192537 55 248 3.0 9.0 0.01 0.16 0.01 72 1023.6
20260501191517 55 225 3.0 10.0 0.01 0.16 0.01 71 1023.6
20260501190517 55 225 3.0 7.0 0.01 0.16 0.01 70 1023.6
20260501185517 55 248 3.0 8.0 0.01 0.16 0.01 71 1023.7
20260501184519 55 225 4.0 13.0 0.01 0.17 0.01 71 1023.7
20260501183520 55 225 3.0 9.0 0.01 0.17 0.01 73 1023.8
20260501182528 54 203 2.0 8.0 0.00 0.16 0.00 75 1023.9
20260501181540 54 180 1.0 8.0 0.00 0.16 0.00 76 1024.0
20260501180619 53 225 1.0 4.0 0.00 0.16 0.00 77 1024.3
20260501175519 53 225 3.0 8.0 0.00 0.16 0.00 79 1024.2
20260501174520 54 225 4.0 12.0 0.00 0.16 0.00 77 1024.2
20260501173519 55 225 4.0 13.0 0.00 0.16 0.00 73 1024.1
20260501172539 55 225 3.0 10.0 0.00 0.16 0.00 74 1023.9
20260501171657 55 203 1.0 8.0 0.00 0.17 0.00 74 1023.8